Volver al catálogo

CZ-6A DEB

ActivoPO
NORAD 61295·DEBRIS·🇨🇳 China

Lanzado Aug 6, 2024 desde Taiyuan Satellite Launch Center

Loading…

Próximos Pases (próximas 24 horas)

TLE

ActualizadoSource: Space-Track

Época: Sep 14, 2026, 11:46 UTC

1 61295U 24140TG  26257.49092781  .00000465  00000-0  21026-3 0  9995
2 61295  89.0072 265.7383 0046094 246.5049 113.1294 14.19920077105959

Sigue CZ-6A DEB en tiempo real con AllMySat

Download on the App Store